[[[{"header":{"parameterUnit":"kt","parameterCategory":2,"dx":1,"dy":1,"la1":30.253999710083008,"la2":30.299108505249023,"lo1":-89.0895004272461,"lo2":-89.04439544677734,"nx":28,"ny":28,"refTime":"2022-10-23T21:00:00:Z","depth":0,"parameterNumber":1,"parameterNumberName":"U-component_of_WINDS"},"data":[-9.4859,-9.4944,-9.4965,-9.5072,-9.511,-9.5186,-9.5219,-9.5266,-9.5308,-9.5401,-9.5459,-9.5488,-9.5537,-9.561,-9.5673,-9.5684,-9.5708,-9.5725,-9.5734,-9.5644,-9.5633,-9.5622,-9.5602,-9.5731,-9.5731,-9.5824,-9.5824,-9.5825,-9.4796,-9.4834,-9.4896,-9.4971,-9.5025,-9.5023,-9.5082,-9.5126,-9.5194,-9.5246,-9.5303,-9.5386,-9.5455,-9.5498,-9.5567,-9.5607,-9.5608,-9.5624,-9.5619,-9.5626,-9.5532,-9.551,-9.5622,-9.5622,-9.5622,-9.5622,-9.5622,-9.5622,-9.4686,-9.4736,-9.4793,-9.486,-9.4904,-9.4953,-9.5004,-9.5038,-9.5099,-9.5172,-9.5185,-9.5261,-9.5316,-9.5407,-9.5442,-9.5502,-9.5487,-9.551,-9.5515,-9.5519,-9.5521,-9.5383,-9.5515,-9.5515,-9.5515,-9.5514,-9.5514,0,-9.4611,-9.4625,-9.4685,-9.4752,-9.4802,-9.4856,-9.4908,-9.494,-9.4973,-9.5022,-9.5093,-9.5137,-9.5225,-9.5293,-9.5361,-9.5392,-9.539,-9.5393,-9.5408,-9.5401,-9.5388,-9.5393,-9.5236,-9.5387,-9.5386,-9.5386,-9.5385,-9.5385,-9.4499,-9.4555,-9.4622,-9.4662,-9.4695,-9.4759,-9.48,-9.4825,-9.4868,-9.4935,-9.4977,-9.5047,-9.5103,-9.5213,-9.5249,-9.5314,-9.5312,-9.5368,-9.5321,-9.5315,-9.5309,-9.5304,-9.531,-9.5374,-9.5375,-9.5376,-9.5377,0,-9.4434,-9.4465,-9.4557,-9.4618,-9.4635,-9.4692,-9.4743,-9.4793,-9.4819,-9.4892,-9.491,-9.495,-9.5018,-9.5045,-9.5128,-9.514,-9.5234,-9.5233,-9.5216,-9.5216,-9.5267,-9.526,-9.5431,-9.5454,-9.5324,-9.5325,-9.5326,0,-9.4348,-9.442,-9.4462,-9.4513,-9.4595,-9.4616,-9.4696,-9.4725,-9.4771,-9.4828,-9.4831,-9.4885,-9.491,-9.4968,-9.4984,-9.5067,-9.5083,-9.5095,-9.5097,-9.5092,-9.509,-9.511,-9.5102,-9.5105,-9.5104,-9.5103,-9.5102,0,-9.4239,-9.4346,-9.4431,-9.4459,-9.4528,-9.4568,-9.4598,-9.4648,-9.4688,-9.4744,-9.4769,-9.4833,-9.4866,-9.4916,-9.4935,-9.4903,-9.5037,-9.4996,-9.5049,-9.5048,-9.5072,-9.507,-9.5219,-9.5101,-9.5101,-9.5101,-9.51,0,-9.4172,-9.4229,-9.4348,-9.4405,-9.4431,-9.4487,-9.455,-9.4604,-9.4656,-9.467,-9.4713,-9.4716,-9.479,-9.4748,-9.485,-9.4802,-9.4835,-9.4854,-9.4858,-9.4861,-9.4811,-9.4888,-9.5031,-9.5045,-9.4873,-9.4871,-9.4869,0,-9.4039,-9.4166,-9.4184,-9.4295,-9.4356,-9.4354,-9.4417,-9.4462,-9.4485,-9.454,-9.4566,-9.4627,-9.4601,-9.4623,-9.4672,-9.4699,-9.4762,-9.4692,-9.4767,-9.477,-9.4751,-9.4884,-9.4896,-9.4998,-9.4845,-9.4848,-9.485,0,-9.3938,-9.402,-9.4038,-9.407,-9.4133,-9.4184,-9.4256,-9.4321,-9.4357,-9.4407,-9.4466,-9.4555,-9.4538,-9.4573,-9.4581,-9.4629,-9.472,-9.4603,-9.4604,-9.4621,-9.4836,-9.4847,-9.4864,-9.4715,-9.4717,-9.472,-9.4831,0,-9.3826,-9.3892,-9.3944,-9.4014,-9.4057,-9.4128,-9.4153,-9.4195,-9.4198,-9.4219,-9.4307,-9.4348,-9.4412,-9.4438,-9.444,-9.4543,-9.4528,-9.4508,-9.4463,-9.4552,-9.4588,-9.4604,-9.4407,-9.4406,-9.4405,-9.4404,0,0,-9.3689,-9.3783,-9.3797,-9.3866,-9.3903,-9.3896,-9.3969,-9.4004,-9.4072,-9.4098,-9.4075,-9.4202,-9.4235,-9.4338,-9.4368,-9.4395,-9.4414,-9.4381,-9.451,-9.4522,-9.4533,-9.4572,-9.4588,-9.4403,-9.4402,-9.4402,-9.4402,0,-9.3651,-9.3688,-9.376,-9.3797,-9.3851,-9.3869,-9.3887,-9.3938,-9.3954,-9.404,-9.403,-9.4085,-9.4185,-9.4221,-9.4252,-9.4372,-9.4358,-9.439,-9.4445,-9.45,-9.4513,-9.4524,-9.4565,-9.458,-9.4399,-9.4399,-9.4399,0,-9.3553,-9.3592,-9.3629,-9.3712,-9.3746,-9.3808,-9.377,-9.3836,-9.3882,-9.3866,-9.3949,-9.3974,-9.4024,-9.4119,-9.4162,-9.414,-9.4305,-9.4257,-9.4264,-9.4267,-9.4321,-9.4336,-9.435,-9.4166,-9.4165,-9.4164,0,0,-9.3517,-9.3578,-9.3624,-9.3705,-9.3728,-9.3755,-9.3789,-9.3794,-9.3839,-9.3856,-9.3886,-9.393,-9.3988,-9.4026,-9.4081,-9.4182,-9.4192,-9.4227,-9.4238,-9.4247,-9.4255,-9.4311,-9.4327,-9.416,-9.416,-9.416,0,0,-9.3499,-9.3555,-9.3549,-9.3646,-9.3691,-9.3739,-9.3787,-9.378,-9.3832,-9.3826,-9.3834,-9.3846,-9.3935,-9.3958,-9.3911,-9.4065,-9.4021,-9.4033,-9.4045,-9.4059,-9.407,-9.406,-9.3872,0,0,0,0,0,-9.347,-9.3549,-9.3543,-9.3562,-9.3664,-9.3743,-9.3756,-9.3765,-9.3735,-9.3773,-9.3797,-9.3781,-9.3935,-9.3893,-9.3911,-9.3962,-9.4116,-9.4124,-9.4132,-9.4171,-9.4186,-9.4198,0,0,0,0,0,0,-9.3478,-9.3502,-9.3541,-9.3592,-9.3615,-9.374,-9.369,-9.3695,-9.3731,-9.3726,-9.3777,-9.3782,-9.3791,-9.3884,-9.39,-9.3949,-9.3866,-9.4119,-9.4126,-9.4132,-9.4176,-9.4188,-9.4199,0,0,0,0,0,-9.3484,-9.3504,-9.3664,-9.3591,-9.3611,-9.3642,-9.3687,-9.3691,-9.3718,-9.3754,-9.3759,-9.3722,-9.3792,-9.3806,-9.3894,-9.3941,-9.3854,-9.3861,-9.4124,-9.4129,-9.4134,-9.4182,0,0,0,0,0,0,-9.3489,-9.3507,-9.3668,-9.3675,-9.3561,-9.3635,-9.3647,-9.3687,-9.3744,-9.375,-9.3699,-9.3695,-9.3794,-9.3805,-9.3816,-9.3938,-9.3845,-9.3851,-9.3855,-9.4128,-9.4132,-9.4135,0,0,0,0,0,0,-9.3497,-9.3513,-9.3672,-9.3633,-9.3636,-9.3629,-9.364,-9.3714,-9.3744,-9.3685,-9.3684,-9.3697,-9.3776,-9.3804,-9.3812,-9.3928,-9.3838,-9.3844,-9.3848,-9.3851,-9.4131,-9.4134,0,0,0,0,0,0,-9.3504,-9.3517,-9.3632,-9.3634,-9.3635,-9.3707,-9.3695,-9.3798,-9.3714,-9.3683,-9.3706,-9.3703,-9.3776,-9.3785,-9.381,-9.3922,-9.3927,-9.3838,-9.3842,-9.3845,-9.3847,0,0,0,0,0,0,0,-9.3509,-9.3416,-9.3631,-9.3634,-9.3635,-9.3734,-9.3736,-9.3737,-9.3713,-9.371,-9.3707,-9.3704,-9.3804,-9.381,-9.3817,-9.3918,0,0,-9.3838,-9.384,0,0,0,0,0,0,0,0,-9.3411,-9.3415,-9.3631,-9.3632,-9.3634,-9.3734,-9.3735,-9.3737,-9.3712,-9.371,-9.3708,-9.3705,-9.3805,-9.3811,-9.3816,0,0,0,0,0,0,0,0,0,0,0,0,0,0,0,-9.3631,-9.3632,0,-9.3734,-9.3735,-9.3737,-9.3712,-9.371,-9.3708,-9.3706,-9.3807,-9.3811,-9.3816,0,0,0,0,0,0,0,0,0,0,0,0,0,0,0,0,0,0,0,0,0,0,0,0,0,0,0,0,0,0,0,0,0,0,0,0,0,0,0,0,0,0,0,0,0,0,0,0,0,0,0,0,0,0,0,0,0,0,0,0,0,0,0,0,0,0,0,0,0]}],[{"header":{"parameterUnit":"kt","parameterCategory":2,"dx":1,"dy":1,"la1":30.253999710083008,"la2":30.299108505249023,"lo1":-89.0895004272461,"lo2":-89.04439544677734,"nx":28,"ny":28,"refTime":"2022-10-23T21:00:00:Z","depth":0,"parameterNumber":2,"parameterNumberName":"V-component_of_WINDS"},"data":[9.5586,9.5679,9.571,9.5828,9.5874,9.5959,9.5998,9.6051,9.6099,9.6199,9.6261,9.6295,9.635,9.6427,9.6493,9.6505,9.6532,9.6547,9.6559,9.6473,9.6463,9.6453,9.6436,9.6552,9.6552,9.6646,9.6647,9.6647,9.553,9.5578,9.5648,9.5736,9.5797,9.5802,9.587,9.5919,9.5992,9.605,9.6112,9.62,9.6271,9.632,9.6392,9.6432,9.6437,9.645,9.6448,9.6457,9.6366,9.6347,9.6446,9.6446,9.6446,9.6446,9.6446,9.6446,9.5435,9.5488,9.5559,9.5635,9.5685,9.5742,9.5796,9.5839,9.5904,9.5985,9.6001,9.6082,9.6141,9.6237,9.6274,9.6336,9.6324,9.6345,9.6351,9.6357,9.6362,9.6231,9.6347,9.6347,9.6347,9.6347,9.6347,0,9.5374,9.5396,9.5463,9.5541,9.5597,9.5657,9.5716,9.5749,9.5795,9.5846,9.5921,9.5968,9.6059,9.613,9.62,9.6233,9.6238,9.6239,9.6255,9.6251,9.6241,9.6251,9.6105,9.6235,9.6234,9.6234,9.6233,9.6233,9.5283,9.5339,9.5424,9.5468,9.5507,9.5574,9.562,9.5656,9.5702,9.5776,9.5818,9.589,9.5949,9.6059,9.61,9.6165,9.6168,9.6216,9.6177,9.6173,9.6173,9.6171,9.6178,9.6223,9.6225,9.6226,9.6226,0,9.523,9.5275,9.5369,9.5445,9.5465,9.5521,9.5584,9.5634,9.5666,9.574,9.5759,9.5808,9.5877,9.5911,9.5993,9.6008,9.61,9.6099,9.6082,9.6085,9.6134,9.613,9.628,9.6303,9.618,9.6181,9.6182,0,9.5171,9.5241,9.5303,9.5355,9.5435,9.5469,9.5546,9.5581,9.5632,9.5691,9.5703,9.5756,9.5789,9.5847,9.5868,9.5947,9.5961,9.5978,9.5983,9.5979,9.5977,9.6002,9.5997,9.5988,9.5987,9.5986,9.5986,0,9.5085,9.5197,9.5282,9.5314,9.5398,9.5435,9.5471,9.5527,9.5569,9.5627,9.5655,9.5717,9.5752,9.5801,9.5829,9.5801,9.5924,9.5892,9.5942,9.5941,9.5967,9.5966,9.609,9.5985,9.5985,9.5984,9.5984,0,9.5043,9.5106,9.522,9.5292,9.5319,9.5371,9.544,9.5493,9.555,9.5568,9.5613,9.5624,9.5693,9.5661,9.5757,9.5715,9.5748,9.577,9.5773,9.5783,9.5746,9.5815,9.5928,9.5943,9.5791,9.5789,9.5788,0,9.4936,9.5061,9.5092,9.5197,9.526,9.5273,9.5331,9.5381,9.5411,9.5466,9.5496,9.5556,9.5538,9.5561,9.5604,9.5636,9.5691,9.5629,9.5707,9.5709,9.5697,9.58,9.5811,9.59,9.5768,9.577,9.5771,0,9.4857,9.4959,9.4975,9.5014,9.5086,9.5135,9.5202,9.527,9.5307,9.5357,9.5414,9.5496,9.5488,9.5523,9.5536,9.558,9.5655,9.5563,9.5564,9.5581,9.5758,9.5769,9.5784,9.5654,9.5656,9.5658,9.5755,0,9.4792,9.4858,9.4902,9.4982,9.5025,9.509,9.5128,9.5168,9.518,9.5208,9.5288,9.5331,9.5396,9.5418,9.5426,9.5514,9.5504,9.5492,9.5462,9.5529,9.5562,9.5575,9.5411,9.541,9.541,9.5409,0,0,9.468,9.4774,9.4802,9.4868,9.4907,9.4917,9.4984,9.5021,9.5094,9.512,9.5104,9.5226,9.5259,9.5353,9.5376,9.54,9.5419,9.5392,9.5496,9.5505,9.5514,9.5549,9.5562,9.5408,9.5408,9.5408,9.5408,0,9.4665,9.4705,9.4771,9.4813,9.4875,9.4902,9.4917,9.4978,9.4999,9.5076,9.508,9.513,9.5222,9.5261,9.5292,9.5383,9.5381,9.5398,9.5439,9.5489,9.5499,9.5508,9.5544,9.5556,9.5406,9.5406,9.5406,0,9.4597,9.4644,9.4679,9.4765,9.4804,9.4864,9.4845,9.4906,9.4951,9.4951,9.5027,9.5055,9.5105,9.5187,9.5224,9.521,9.5345,9.5305,9.531,9.5314,9.5364,9.5376,9.5387,9.5243,9.5242,9.5241,0,0,9.4577,9.4637,9.4695,9.4764,9.4789,9.4828,9.4862,9.4876,9.4925,9.4943,9.4978,9.5023,9.5078,9.5112,9.5164,9.5247,9.5261,9.5284,9.5292,9.5298,9.5306,9.5357,9.5369,9.5239,9.5239,9.5239,0,0,9.4567,9.464,9.4643,9.4728,9.4776,9.4835,9.4875,9.4879,9.493,9.4926,9.4947,9.496,9.5036,9.506,9.5023,9.5154,9.5124,9.5133,9.5135,9.5145,9.5153,9.5146,9.5005,0,0,0,0,0,9.4569,9.4632,9.4634,9.4654,9.4758,9.4835,9.4848,9.487,9.4851,9.4883,9.4913,9.4907,9.5046,9.5014,9.5031,9.5072,9.5206,9.5212,9.5217,9.524,9.525,9.5259,0,0,0,0,0,0,9.4577,9.4601,9.4632,9.4694,9.4718,9.4832,9.4805,9.4812,9.4848,9.4847,9.4902,9.4909,9.4926,9.5006,9.5021,9.506,9.5,9.5208,9.5213,9.5218,9.5244,9.5252,9.5259,0,0,0,0,0,9.4584,9.4603,9.4766,9.4693,9.4714,9.4759,9.4802,9.4809,9.4836,9.4881,9.4888,9.485,9.4927,9.494,9.5015,9.5053,9.499,9.4995,9.5212,9.5216,9.5219,9.5248,0,0,0,0,0,0,9.4588,9.4608,9.477,9.4777,9.4671,9.4753,9.4767,9.4805,9.4869,9.4877,9.483,9.4828,9.4928,9.4938,9.4949,9.5049,9.4981,9.4987,9.499,9.5215,9.5218,9.522,0,0,0,0,0,0,9.4598,9.4614,9.4774,9.4745,9.4749,9.4747,9.4759,9.4824,9.4869,9.4814,9.4814,9.4828,9.491,9.4937,9.4945,9.5045,9.4975,9.498,9.4984,9.4986,9.5217,9.5219,0,0,0,0,0,0,9.4605,9.4619,9.4743,9.4746,9.4749,9.4829,9.4804,9.4909,9.4849,9.4811,9.4844,9.4841,9.4909,9.4918,9.4943,9.5039,9.5043,9.4975,9.4979,9.4981,9.4983,0,0,0,0,0,0,0,9.461,9.4513,9.4729,9.4747,9.475,9.4842,9.4844,9.4846,9.4848,9.4846,9.4844,9.4842,9.4944,9.495,9.4956,9.5034,0,0,9.4975,9.4977,0,0,0,0,0,0,0,0,9.4508,9.4512,9.4729,9.4731,9.4732,9.4843,9.4844,9.4846,9.4848,9.4846,9.4845,9.4843,9.4946,9.4951,9.4955,0,0,0,0,0,0,0,0,0,0,0,0,0,0,0,9.473,9.4731,0,9.4843,9.4844,9.4845,9.4848,9.4846,9.4845,9.4844,9.4947,9.4951,9.4955,0,0,0,0,0,0,0,0,0,0,0,0,0,0,0,0,0,0,0,0,0,0,0,0,0,0,0,0,0,0,0,0,0,0,0,0,0,0,0,0,0,0,0,0,0,0,0,0,0,0,0,0,0,0,0,0,0,0,0,0,0,0,0,0,0,0,0,0,0]}]]]